Printer-friendly version

IAU Minor Planet Center

Minor Planet Center

MPEC 2009-K64 : 2009 KM7

The following Minor Planet Electronic Circular may be linked-to from your own Web pages, but must not otherwise be redistributed electronically.


Read MPEC 2009-K63 Read MPEC 2009-K65


M.P.E.C. 2009-K64                                Issued 2009 May 28, 17:27 UT

     The Minor Planet Electronic Circulars contain information on unusual
         minor planets and routine data on comets.  They are published
   on behalf of Commission 20 of the International Astronomical Union by the
          Minor Planet Center, Smithsonian Astrophysical Observatory,
                          Cambridge, MA 02138, U.S.A.

             Prepared using the Tamkin Foundation Computer Network

                              MPC@CFA.HARVARD.EDU
          URL http://www.cfa.harvard.edu/iau/mpc.html  ISSN 1523-6714

                                   2009 KM7

Observations:
     K09K07M* C2009 05 26.42629 23 06 21.50 +17 46 09.3          20.0 V EK064691
     K09K07M  C2009 05 26.43890 23 06 24.30 +17 46 29.1          20.0 V EK064691
     K09K07M  C2009 05 26.45152 23 06 27.11 +17 46 48.6          20.1 V EK064691
     K09K07M  C2009 05 26.47575 23 06 32.58 +17 47 27.2                 EK064693
     K09K07M  C2009 05 26.47637 23 06 32.71 +17 47 28.0                 EK064693
     K09K07M  C2009 05 26.47699 23 06 32.83 +17 47 28.9                 EK064693
     K09K07M tC2009 05 27.44870 23 10 11.24 +18 12 29.4          20.2 V EK064291
     K09K07M tC2009 05 27.45285 23 10 12.14 +18 12 35.5          20.4 V EK064291
     K09K07M tC2009 05 27.45695 23 10 13.04 +18 12 41.9          20.9 V EK064291
     K09K07M  C2009 05 28.41856 23 13 48.82 +18 37 03.5          19.6 R EK064H01
     K09K07M  C2009 05 28.42488 23 13 50.22 +18 37 13.2          19.6 R EK064H01
     K09K07M  C2009 05 28.43012 23 13 51.36 +18 37 21.2          20.2 V EK064291
     K09K07M  C2009 05 28.43146 23 13 51.68 +18 37 23.1          19.2 R EK064H01
     K09K07M  C2009 05 28.43436 23 13 52.28 +18 37 27.5          20.3 V EK064291
     K09K07M  C2009 05 28.43708 23 13 52.93 +18 37 31.7          19.4 R EK064H01
     K09K07M  C2009 05 28.43912 23 13 53.37 +18 37 35.1          20.2 V EK064291
     K09K07M  C2009 05 28.44530 23 13 54.75 +18 37 44.2          19.6 R EK064H01

Observer details:
291 LPL/Spacewatch II.  Observer J. V. Scotti.  1.8-m f/2.7 reflector + CCD.
691 Steward Observatory, Kitt Peak.  Observer J. V. Scotti.  0.9-m f/3
    reflector + CCD.
693 Catalina Station, Tucson.  Observer C. W. Hergenrother.  1.54-m reflector
    + CCD.
H01 Magdalena Ridge Observatory, Socorro.  Observer W. H. Ryan.  2.4-m f/8.9
    reflector + CCD.

Orbital elements:
2009 KM7                                                 Earth MOID = 0.3349 AU
Epoch 2009 May 9.0 TT = JDT 2454960.5                   MPC
M 350.72844              (2000.0)            P               Q
n   0.34893258     Peri.   90.99642     +0.52075592     +0.83830169
a   1.9982126      Node   212.08826     -0.85283430     +0.50229601
e   0.4310613      Incl.   17.69232     -0.03856062     +0.21201177
P   2.82           H   17.8           G   0.15
From 17 observations 2009 May 26-28.

Ephemeris:
2009 KM7                 a,e,i = 2.00, 0.43, 18                  q = 1.1369
Date    TT    R. A. (2000) Decl.     Delta      r     Elong.  Phase     V
2009 05 29    23 15.97   +18 51.7    0.935    1.139    71.4    57.5    20.0
2009 06 08    23 52.88   +22 39.7    0.945    1.137    70.9    57.5    20.0
2009 06 18    00 28.81   +25 43.9    0.956    1.146    71.0    57.0    20.1
2009 06 28    01 03.42   +28 03.7    0.966    1.163    71.8    56.1    20.1
2009 07 08    01 36.29   +29 40.6    0.973    1.190    73.4    55.0    20.1
2009 07 18    02 07.03   +30 37.7    0.975    1.224    75.8    53.6    20.1
2009 07 28    02 35.15   +30 58.3    0.969    1.264    79.1    52.1    20.2
2009 08 07    03 00.15   +30 45.2    0.957    1.310    83.3    50.2    20.2
2009 08 17    03 21.60   +30 01.1    0.938    1.360    88.4    48.1    20.1
2009 08 27    03 38.95   +28 47.5    0.912    1.413    94.5    45.4    20.1
2009 09 06    03 51.70   +27 05.3    0.883    1.469   101.8    42.2    20.0
2009 09 16    03 59.39   +24 54.2    0.851    1.526   110.3    38.2    19.9
2009 09 26    04 01.56   +22 13.9    0.822    1.584   120.1    33.2    19.8
2009 10 06    03 58.20   +19 05.8    0.800    1.642   131.4    27.2    19.6
2009 10 16    03 49.77   +15 35.9    0.790    1.700   143.7    20.3    19.5
2009 10 26    03 37.53   +11 57.4    0.800    1.757   156.5    13.0    19.3
2009 11 05    03 23.56   +08 30.7    0.834    1.814   167.3     6.9    19.2
2009 11 15    03 10.08   +05 35.9    0.893    1.870   166.9     6.9    19.4
2009 11 25    02 58.97   +03 26.1    0.978    1.925   156.8    11.7    19.9
2009 12 05    02 51.30   +02 03.9    1.085    1.979   145.6    16.3    20.3
2009 12 15    02 47.33   +01 23.8    1.212    2.031   135.0    20.0    20.8
2009 12 25    02 46.89   +01 17.6    1.353    2.082   125.2    22.7    21.1
2010 01 04    02 49.53   +01 36.5    1.506    2.131   116.2    24.5    21.5
2010 01 14    02 54.75   +02 13.1    1.667    2.179   107.8    25.5    21.8
2010 01 24    03 02.12   +03 01.4    1.833    2.225    99.9    25.8    22.0

Timothy B. Spahr             (C) Copyright 2009 MPC           M.P.E.C. 2009-K64

Read MPEC 2009-K63 Read MPEC 2009-K65


Our Web policy. Index to the CBAT/MPC/ICQ pages.


Valid HTML 4.01!